[[{"header":{"parameterUnit":"m.s-1","parameterCategory":1,"la1":30.2991,"la2":30.254,"lo1":-89.0895,"lo2":-89.0444,"dy":0.0017,"dx":0.0017,"nx":28,"ny":28,"refTime":"2026-01-03T03:00:00:Z","depth":0,"parameterNumber":2,"parameterNumberName":"U-component_of_WINDS"},"data":[0,0,0,0,0,0,0,0,0,0,0,0,0,0,0,0,0,0,0,0,0,0,0,0,0,0,0,0,0,0,0,0,0,0,0,0,0,0,0,0,0,0,0,0,0,0,0,0,0,0,0,0,0,0,0,0,0,0,1.7519,1.7519,0,1.7444,1.7443,1.7442,1.7405,1.7405,1.7405,1.7405,1.7326,1.7324,1.7322,0,0,0,0,0,0,0,0,0,0,0,0,0,1.7634,1.7632,1.7519,1.7518,1.7518,1.7444,1.7443,1.7442,1.7405,1.7405,1.7405,1.7405,1.7326,1.7324,1.7321,0,0,0,0,0,0,0,0,0,0,0,0,0,1.7574,1.7631,1.752,1.749,1.7487,1.7444,1.7443,1.7441,1.7405,1.7405,1.7405,1.7405,1.7327,1.7324,1.7321,1.7301,0,0,1.7311,1.731,0,0,0,0,0,0,0,0,1.7577,1.7569,1.7495,1.7492,1.7488,1.7434,1.7454,1.7394,1.7405,1.7436,1.7405,1.7405,1.7362,1.7356,1.7341,1.7298,1.7294,1.7311,1.7309,1.7308,1.7307,0,0,0,0,0,0,0,1.7581,1.7573,1.7489,1.7494,1.749,1.7481,1.7473,1.7443,1.7399,1.7433,1.743,1.7422,1.736,1.7344,1.7339,1.7293,1.7311,1.7308,1.7306,1.7305,1.7234,1.7234,0,0,0,0,0,0,1.759,1.7576,1.7492,1.7487,1.7534,1.7479,1.747,1.7451,1.74,1.7392,1.7422,1.742,1.735,1.7343,1.7336,1.7312,1.7308,1.7305,1.7303,1.7234,1.7234,1.7234,0,0,0,0,0,0,1.7593,1.7583,1.7495,1.7531,1.7519,1.7477,1.7457,1.745,1.7434,1.7391,1.7383,1.7414,1.735,1.7341,1.7312,1.7309,1.7304,1.7301,1.7234,1.7234,1.7234,1.7263,0,0,0,0,0,0,1.7596,1.7584,1.7575,1.7531,1.7517,1.7471,1.7457,1.7448,1.7429,1.7427,1.7382,1.7375,1.7349,1.7316,1.7308,1.7305,1.7298,1.7234,1.7234,1.7234,1.7262,1.7264,1.7266,0,0,0,0,0,1.76,1.7585,1.7575,1.7565,1.7505,1.747,1.7463,1.7434,1.7429,1.7421,1.7394,1.7376,1.7311,1.7314,1.7304,1.73,1.7234,1.7234,1.7234,1.7261,1.7264,1.7266,0,0,0,0,0,0,1.7628,1.7578,1.7567,1.7536,1.7508,1.7464,1.7452,1.7437,1.7408,1.7407,1.7372,1.7362,1.7337,1.7315,1.7319,1.728,1.7271,1.7269,1.7295,1.7297,1.7299,1.7304,1.7296,0,0,0,0,0,1.7631,1.7607,1.7565,1.7542,1.7529,1.7494,1.7477,1.7458,1.7427,1.7414,1.7385,1.7356,1.7329,1.7312,1.7284,1.726,1.7251,1.7252,1.7254,1.7256,1.7255,1.7243,1.7244,1.7235,1.7235,1.7235,0,0,1.7636,1.7606,1.7592,1.7547,1.7523,1.75,1.7483,1.7458,1.7441,1.741,1.7382,1.736,1.7325,1.7299,1.7286,1.728,1.7256,1.7256,1.7258,1.7255,1.7244,1.7245,1.7246,1.7235,1.7235,1.7235,0,0,1.7633,1.7608,1.7588,1.7565,1.753,1.7507,1.7503,1.7462,1.7447,1.7418,1.7396,1.7375,1.7329,1.7306,1.7289,1.7284,1.7268,1.7276,1.7285,1.7275,1.7276,1.7276,1.7277,1.7277,1.7275,1.7275,1.7275,0,1.7643,1.7607,1.7579,1.7557,1.7539,1.7513,1.7494,1.7473,1.743,1.7419,1.7413,1.7358,1.7332,1.7303,1.7302,1.7288,1.7283,1.728,1.7278,1.7278,1.7278,1.7279,1.7279,1.7277,1.7277,1.7276,1.7276,0,1.7623,1.7599,1.7587,1.7549,1.753,1.7509,1.748,1.7464,1.7448,1.7427,1.74,1.7369,1.7337,1.7329,1.7311,1.7298,1.7296,1.7285,1.7275,1.7281,1.7281,1.728,1.7279,1.7278,1.7278,1.7278,0,0,1.7631,1.7583,1.7579,1.7563,1.7525,1.7506,1.7486,1.7456,1.7444,1.7417,1.7401,1.7365,1.7356,1.7336,1.7317,1.7308,1.731,1.7299,1.7297,1.7303,1.7296,1.7305,1.7305,1.73,1.7299,1.7299,1.73,0,1.7624,1.7587,1.7564,1.7536,1.7516,1.7493,1.7476,1.7452,1.7433,1.7413,1.7391,1.7368,1.7356,1.7345,1.7335,1.7312,1.7308,1.7311,1.7285,1.7284,1.7294,1.7305,1.7313,1.7314,1.7299,1.7299,1.7299,0,1.761,1.7586,1.7557,1.7526,1.7516,1.7501,1.7475,1.7456,1.7429,1.7416,1.7397,1.7378,1.7358,1.7352,1.7325,1.7328,1.7316,1.7303,1.7303,1.7299,1.7292,1.7302,1.7314,1.7314,1.7298,1.7298,1.7298,0,1.7621,1.7582,1.7561,1.7548,1.751,1.7501,1.7485,1.7458,1.7443,1.742,1.7411,1.7386,1.7372,1.7353,1.733,1.7326,1.7306,1.7296,1.7296,1.7297,1.7291,1.7292,1.7302,1.7283,1.7283,1.7283,1.7283,0,1.7615,1.7599,1.7566,1.7553,1.7535,1.751,1.7494,1.7476,1.7453,1.7437,1.7416,1.7402,1.7371,1.7354,1.7335,1.7318,1.7311,1.7301,1.7296,1.7303,1.7305,1.7294,1.7294,1.7283,1.7283,1.7283,1.7283,0,1.7624,1.7601,1.7577,1.7545,1.7537,1.7526,1.7499,1.7486,1.7468,1.7449,1.7443,1.7414,1.7393,1.7368,1.7338,1.7326,1.731,1.7302,1.7319,1.7317,1.7318,1.7319,1.7322,1.7323,1.7303,1.7303,1.7304,0,1.7622,1.7609,1.7578,1.7567,1.7552,1.7533,1.7519,1.7496,1.7482,1.7454,1.7446,1.7424,1.7404,1.7372,1.7349,1.7327,1.7319,1.7322,1.7315,1.7324,1.7321,1.7323,1.7322,1.7324,1.7324,1.7324,1.7324,0,1.7621,1.7612,1.7593,1.7571,1.7556,1.7538,1.7518,1.751,1.7483,1.747,1.7449,1.7435,1.7407,1.7385,1.7362,1.7346,1.7331,1.7327,1.7326,1.7333,1.7344,1.734,1.7325,1.7327,1.7327,1.7326,1.7326,1.7326,1.7624,1.7614,1.7592,1.7573,1.7557,1.7541,1.7529,1.7511,1.7493,1.747,1.7457,1.7438,1.7416,1.7383,1.7368,1.7353,1.7348,1.7346,1.7345,1.7345,1.7348,1.7347,1.7349,1.7348,1.7348,1.7348,1.7348,0,1.7624,1.761,1.7593,1.7568,1.7555,1.7545,1.7524,1.7513,1.7497,1.7478,1.7461,1.744,1.7421,1.7398,1.7378,1.7371,1.7364,1.7366,1.7367,1.7364,1.7353,1.7357,1.7373,1.7373,1.7373,1.7373,1.7373,1.7373,1.7622,1.7605,1.7594,1.757,1.7556,1.7538,1.7528,1.7514,1.7499,1.7477,1.7462,1.7448,1.7429,1.7408,1.7391,1.7385,1.7379,1.7384,1.7376,1.7366,1.7364,1.7362,1.7365,1.7383,1.7383,1.7388,1.7388,1.7388]},{"header":{"parameterUnit":"m.s-1","parameterCategory":1,"la1":30.2991,"la2":30.254,"lo1":-89.0895,"lo2":-89.0444,"dy":0.0017,"dx":0.0017,"nx":28,"ny":28,"refTime":"2026-01-03T03:00:00:Z","depth":0,"parameterNumber":3,"parameterNumberName":"V-component_of_WINDS"},"data":[0,0,0,0,0,0,0,0,0,0,0,0,0,0,0,0,0,0,0,0,0,0,0,0,0,0,0,0,0,0,0,0,0,0,0,0,0,0,0,0,0,0,0,0,0,0,0,0,0,0,0,0,0,0,0,0,0,0,1.0026,1.0027,0,1.0122,1.0123,1.0124,1.0155,1.0155,1.0154,1.0154,1.0255,1.0258,1.0261,0,0,0,0,0,0,0,0,0,0,0,0,0,0.987,0.9873,1.0026,1.0027,1.0028,1.0122,1.0123,1.0124,1.0155,1.0155,1.0154,1.0154,1.0254,1.0257,1.0261,0,0,0,0,0,0,0,0,0,0,0,0,0,0.9949,0.9874,1.0025,1.0055,1.0058,1.0121,1.0123,1.0125,1.0155,1.0155,1.0154,1.0153,1.0253,1.0257,1.0262,1.0304,0,0,1.0276,1.0278,0,0,0,0,0,0,0,0,0.9945,0.9955,1.0049,1.0053,1.0057,1.0126,1.0105,1.0185,1.0155,1.0118,1.0154,1.0153,1.0213,1.022,1.024,1.0308,1.0313,1.0276,1.0279,1.0281,1.0282,0,0,0,0,0,0,0,0.9939,0.9951,1.0064,1.005,1.0055,1.0063,1.0074,1.0121,1.0168,1.0122,1.0124,1.0135,1.0215,1.0235,1.0243,1.0314,1.0276,1.028,1.0283,1.0285,1.0422,1.0423,0,0,0,0,0,0,0.9929,0.9946,1.0061,1.0067,0.9998,1.0067,1.0079,1.0104,1.0168,1.0177,1.0135,1.0136,1.0228,1.0237,1.0246,1.03,1.0281,1.0285,1.0288,1.0421,1.0422,1.0423,0,0,0,0,0,0,0.9925,0.9938,1.0057,1.0007,1.0023,1.007,1.0099,1.0107,1.0128,1.0178,1.0187,1.0148,1.0228,1.024,1.0289,1.0304,1.0288,1.0292,1.042,1.0421,1.0422,1.0407,0,0,0,0,0,0,0.9921,0.9937,0.9953,1.0007,1.0025,1.0097,1.01,1.0109,1.0135,1.0137,1.0192,1.0201,1.0228,1.0282,1.0294,1.031,1.0295,1.0419,1.0421,1.0422,1.0406,1.0407,1.0408,0,0,0,0,0,0.9915,0.9946,0.9954,0.9967,1.0046,1.0098,1.0109,1.0139,1.0136,1.0153,1.0185,1.0199,1.03,1.0287,1.03,1.0318,1.0418,1.042,1.0422,1.0406,1.0407,1.0408,0,0,0,0,0,0,0.9893,0.9953,0.9963,1.0012,1.005,1.0103,1.0126,1.0139,1.0179,1.0179,1.0216,1.0228,1.0274,1.0301,1.0285,1.0362,1.036,1.0364,1.0343,1.0345,1.0346,1.0339,1.0299,0,0,0,0,0,0.9894,0.993,0.9981,1.0019,1.0037,1.0078,1.0102,1.0122,1.0162,1.0179,1.0215,1.0254,1.0295,1.0321,1.0361,1.041,1.0423,1.0429,1.043,1.043,1.0434,1.0462,1.0465,1.0429,1.0429,1.0429,0,0,0.9896,0.9933,0.9954,1.0016,1.0047,1.0085,1.0091,1.0131,1.0159,1.0185,1.0234,1.0261,1.0308,1.0357,1.038,1.038,1.0447,1.0433,1.0433,1.0437,1.0464,1.0468,1.0471,1.043,1.043,1.043,0,0,0.9919,0.9951,0.9986,1.0017,1.0064,1.0091,1.0099,1.0151,1.017,1.0219,1.0239,1.0273,1.0342,1.0375,1.04,1.0434,1.0448,1.0446,1.0452,1.0479,1.0482,1.0484,1.0497,1.0501,1.045,1.045,1.045,0,0.9917,0.9973,1.0003,1.0041,1.0068,1.0091,1.0128,1.0157,1.0215,1.0233,1.0232,1.0319,1.0352,1.0409,1.0417,1.0437,1.0448,1.0441,1.0479,1.0482,1.0485,1.0497,1.0502,1.0449,1.0449,1.045,1.045,0,0.9967,1.0006,1.0029,1.0083,1.0112,1.0149,1.0185,1.0211,1.0228,1.0255,1.0304,1.0345,1.0393,1.0408,1.0425,1.0467,1.0466,1.0471,1.047,1.0487,1.0499,1.0504,1.0449,1.0449,1.0449,1.0449,0,0,0.9981,1.005,1.0058,1.0083,1.0136,1.0167,1.0205,1.0251,1.0273,1.0312,1.0345,1.0403,1.0408,1.0437,1.0458,1.0481,1.0505,1.0484,1.0485,1.0487,1.0554,1.055,1.0555,1.0514,1.0515,1.0516,1.055,0,1.0011,1.0079,1.0107,1.0162,1.0199,1.0221,1.0255,1.0291,1.0317,1.0352,1.038,1.0421,1.0424,1.0442,1.0465,1.0497,1.052,1.0495,1.0546,1.0548,1.0535,1.0562,1.0558,1.0588,1.0555,1.0556,1.0557,0,1.0056,1.0094,1.0153,1.0201,1.0217,1.0247,1.0291,1.0324,1.0366,1.0383,1.0414,1.0434,1.0475,1.047,1.0528,1.051,1.0533,1.0551,1.0553,1.056,1.0554,1.057,1.0599,1.0603,1.0565,1.0564,1.0563,0,1.006,1.0126,1.017,1.019,1.0248,1.0268,1.0293,1.0334,1.036,1.0399,1.0416,1.046,1.0484,1.0517,1.0548,1.0542,1.0603,1.0601,1.0619,1.0618,1.0632,1.0631,1.0665,1.0645,1.0645,1.0644,1.0644,0,1.0092,1.0127,1.0173,1.02,1.024,1.0271,1.031,1.0337,1.0373,1.0406,1.0428,1.0459,1.0497,1.0533,1.0557,1.0601,1.0612,1.0627,1.0633,1.0626,1.0624,1.0642,1.0641,1.0646,1.0645,1.0645,1.0645,0,1.0104,1.0136,1.0185,1.0234,1.0248,1.0275,1.0318,1.0345,1.0371,1.0413,1.0424,1.0466,1.0509,1.0542,1.0599,1.0615,1.0662,1.0668,1.0647,1.0651,1.0667,1.0665,1.0715,1.0724,1.0697,1.0697,1.0697,0,1.0122,1.0149,1.0202,1.0225,1.0249,1.0286,1.0313,1.0345,1.0371,1.042,1.0442,1.0486,1.0523,1.0591,1.0626,1.0669,1.0678,1.0692,1.0684,1.0675,1.0678,1.0677,1.068,1.0693,1.0693,1.0693,1.0693,0,1.0151,1.0165,1.0202,1.0244,1.0275,1.031,1.0345,1.0363,1.0402,1.043,1.0474,1.0503,1.0559,1.0603,1.065,1.0676,1.0692,1.0695,1.0702,1.0695,1.0682,1.069,1.065,1.0694,1.0694,1.0694,1.0694,1.0694,1.0168,1.0193,1.0233,1.0273,1.0303,1.0336,1.0364,1.0393,1.0429,1.0478,1.0494,1.0539,1.058,1.0644,1.067,1.0706,1.0708,1.0717,1.072,1.0722,1.0721,1.0675,1.0715,1.0715,1.0715,1.0715,1.0715,0,1.0198,1.0225,1.0262,1.031,1.0342,1.0352,1.0392,1.0418,1.0457,1.0493,1.0529,1.0579,1.0621,1.0659,1.0704,1.0725,1.0733,1.0736,1.0735,1.0741,1.0717,1.0707,1.0728,1.0728,1.0728,1.0728,1.0728,1.0728,1.0218,1.0261,1.028,1.0339,1.0366,1.0409,1.0431,1.0461,1.049,1.0545,1.058,1.0604,1.0642,1.0689,1.0728,1.0738,1.0754,1.0755,1.0767,1.0744,1.0743,1.0741,1.0732,1.0758,1.0758,1.0788,1.0788,1.0788]}]]